Location: Costa Mesa
(33.6411°N, 117.9187°W)
Time: 01:47:44
(UTC+00:00)

Cosmos 1818 - Pass Details

Date: 10 September 2024
Orbit: 771 x 801 km, 65.0° (Epoch: 10 October)

Event Time Altitude Azimuth Distance (km) Brightness Sun altitude
Rises 12:29:39 0° 326° (NW) 3,309 6.6 -13.6°
Reaches altitude 10° 12:32:07 10° 322° (NW) 2,373 5.8 -13.1°
Maximum altitude 12:37:26 55° 246° (WSW) 946 3.6 -12.0°
Drops below altitude 10° 12:42:42 10° 169° (S) 2,344 6.0 -11.0°
Sets 12:45:08 0° 165° (SSE) 3,264 6.8 -10.5°
